EFW9TT LOWG-EGKK

Flight info

Callsign EFW9TT
Flight time 1h 55m
Altitude 34000
Route ABIRI4G/16C ABIRI DCT DETSA/N0447F370 DCT SAFFA/N0445F360 DCT ELMUR DCT RIPUS L613 HOC DCT LUL DCT RLP DCT ROTSI DCT KOTUN DCT NINAL DCT KESAX DCT KUNAV KUNAV1G
Aircraft A320/M-SDE3FGIJ1RWXY/SB1

Departure

Time 2026-05-04 18:47
Airport Graz Airport (LOWG)

Arrival

Time 2026-05-04 20:42
Airport London Gatwick Airport (EGKK)
Time Latitude Longitude Altitude Speed Heading
2026-05-04 18:14 46.99532 15.44339 1113 ft 0 kts 126°
2026-05-04 18:32 46.99531 15.44340 1112 ft 1 kts 126°
2026-05-04 18:32 46.99518 15.44350 1111 ft 3 kts 166°
2026-05-04 18:33 46.99506 15.44323 1112 ft 4 kts 274°
2026-05-04 18:33 46.99515 15.44276 1112 ft 5 kts 290°
2026-05-04 18:33 46.99547 15.44244 1113 ft 6 kts 344°
2026-05-04 18:33 46.99592 15.44230 1109 ft 7 kts 349°
2026-05-04 18:34 46.99645 15.44216 1114 ft 8 kts 350°
2026-05-04 18:34 46.99703 15.44200 1112 ft 9 kts 348°
2026-05-04 18:34 46.99766 15.44181 1110 ft 10 kts 349°
2026-05-04 18:34 46.99776 15.44178 1115 ft 0 kts 349°
2026-05-04 18:41 46.99781 15.44177 1110 ft 1 kts 350°
2026-05-04 18:41 46.99803 15.44172 1113 ft 6 kts 351°
2026-05-04 18:42 46.99858 15.44161 1112 ft 10 kts 353°
2026-05-04 18:42 46.99945 15.44137 1117 ft 15 kts 348°
2026-05-04 18:42 47.00062 15.44104 1118 ft 19 kts 349°
2026-05-04 18:42 47.00202 15.44066 1118 ft 21 kts 349°
2026-05-04 18:43 47.00328 15.43973 1118 ft 21 kts 306°
2026-05-04 18:43 47.00390 15.43843 1123 ft 7 kts 304°
2026-05-04 18:43 47.00398 15.43825 1119 ft 0 kts 304°
2026-05-04 18:43 47.00402 15.43816 1117 ft 4 kts 304°
2026-05-04 18:44 47.00432 15.43746 1125 ft 12 kts 295°
2026-05-04 18:44 47.00435 15.43655 1123 ft 14 kts 260°
2026-05-04 18:44 47.00388 15.43611 1126 ft 0 kts 167°
2026-05-04 18:46 47.00371 15.43616 1122 ft 13 kts 166°
2026-05-04 18:47 47.00037 15.43715 1113 ft 83 kts 169°
2026-05-04 18:47 46.99282 15.43926 1107 ft 135 kts 169°
2026-05-04 18:47 46.98268 15.44219 1415 ft 149 kts 169°
2026-05-04 18:47 46.97254 15.44502 2036 ft 148 kts 172°
2026-05-04 18:48 46.96223 15.44784 2489 ft 157 kts 173°
2026-05-04 18:48 46.95070 15.45081 2740 ft 179 kts 178°
2026-05-04 18:48 46.93838 15.44667 3015 ft 193 kts 214°
2026-05-04 18:48 46.92709 15.43516 3525 ft 201 kts 217°
2026-05-04 18:49 46.91568 15.42312 4255 ft 204 kts 217°
2026-05-04 18:49 46.90410 15.41091 5012 ft 207 kts 217°
2026-05-04 18:49 46.89230 15.39854 5747 ft 210 kts 217°
2026-05-04 18:49 46.88029 15.38605 6494 ft 214 kts 217°
2026-05-04 18:50 46.87000 15.37071 7177 ft 218 kts 237°
2026-05-04 18:50 46.86333 15.34951 7544 ft 242 kts 248°
2026-05-04 18:50 46.85700 15.32505 7928 ft 264 kts 248°
2026-05-04 18:50 46.85050 15.29983 8612 ft 272 kts 248°
2026-05-04 18:51 46.84374 15.27381 9420 ft 276 kts 248°
2026-05-04 18:51 46.83686 15.24752 10197 ft 281 kts 248°
2026-05-04 18:51 46.82956 15.21986 10463 ft 303 kts 248°
2026-05-04 18:51 46.82168 15.19019 10744 ft 322 kts 247°
2026-05-04 18:52 46.81349 15.15929 11301 ft 329 kts 248°
2026-05-04 18:52 46.80519 15.12795 12046 ft 332 kts 248°
2026-05-04 18:52 46.79684 15.09642 12737 ft 335 kts 247°
2026-05-04 18:52 46.78834 15.06449 13377 ft 340 kts 248°
2026-05-04 18:53 46.77970 15.03211 14004 ft 345 kts 248°
2026-05-04 18:53 46.77097 14.99935 14615 ft 348 kts 248°
2026-05-04 18:53 46.76450 14.96510 15204 ft 354 kts 260°
2026-05-04 18:53 46.76336 14.92900 15798 ft 360 kts 270°
2026-05-04 18:54 46.76438 14.89239 16393 ft 363 kts 270°
2026-05-04 18:54 46.76538 14.85538 16973 ft 367 kts 270°
2026-05-04 18:54 46.76637 14.81798 17540 ft 371 kts 270°
2026-05-04 18:54 46.76737 14.78022 18146 ft 375 kts 270°
2026-05-04 18:55 46.76834 14.74205 18708 ft 378 kts 270°
2026-05-04 18:55 46.77019 14.66480 19852 ft 384 kts 271°
2026-05-04 18:55 46.77110 14.62572 20422 ft 387 kts 271°
2026-05-04 18:56 46.77201 14.58633 20966 ft 390 kts 271°
2026-05-04 18:56 46.77294 14.54662 21526 ft 393 kts 271°
2026-05-04 18:56 46.77387 14.50665 22072 ft 395 kts 271°
2026-05-04 18:56 46.77477 14.46648 22606 ft 398 kts 271°
2026-05-04 18:57 46.77566 14.42597 23101 ft 401 kts 271°
2026-05-04 18:57 46.77652 14.38510 23561 ft 405 kts 271°
2026-05-04 18:57 46.77739 14.34398 23977 ft 408 kts 271°
2026-05-04 18:57 46.77826 14.30251 24383 ft 410 kts 271°
2026-05-04 18:58 46.77912 14.26090 24799 ft 412 kts 271°
2026-05-04 18:58 46.77997 14.21901 25214 ft 414 kts 271°
2026-05-04 18:58 46.78079 14.17749 25595 ft 416 kts 271°
2026-05-04 18:58 46.78161 14.13520 25989 ft 418 kts 271°
2026-05-04 18:59 46.78243 14.09270 26388 ft 420 kts 271°
2026-05-04 18:59 46.78325 14.04947 26800 ft 422 kts 270°
2026-05-04 18:59 46.78407 14.00654 27176 ft 423 kts 270°
2026-05-04 18:59 46.78487 13.96362 27565 ft 425 kts 270°
2026-05-04 19:00 46.78565 13.92041 27994 ft 426 kts 270°
2026-05-04 19:00 46.78638 13.87770 28380 ft 427 kts 270°
2026-05-04 19:00 46.78710 13.83377 28754 ft 429 kts 270°
2026-05-04 19:00 46.78785 13.79005 29127 ft 431 kts 270°
2026-05-04 19:01 46.78861 13.74633 29496 ft 433 kts 270°
2026-05-04 19:01 46.78933 13.70291 29857 ft 435 kts 270°
2026-05-04 19:01 46.79000 13.65880 30272 ft 434 kts 270°
2026-05-04 19:01 46.79063 13.61474 30719 ft 433 kts 270°
2026-05-04 19:02 46.79124 13.57099 31151 ft 431 kts 270°
2026-05-04 19:02 46.79185 13.52734 31593 ft 430 kts 270°
2026-05-04 19:02 46.79244 13.48380 32019 ft 429 kts 269°
2026-05-04 19:02 46.79301 13.44034 32423 ft 428 kts 269°
2026-05-04 19:03 46.79356 13.39703 32811 ft 427 kts 269°
2026-05-04 19:03 46.79411 13.35362 33232 ft 426 kts 269°
2026-05-04 19:03 46.79464 13.31049 33659 ft 426 kts 269°
2026-05-04 19:03 46.79515 13.26732 34007 ft 426 kts 269°
2026-05-04 19:04 46.79611 13.18064 34072 ft 428 kts 269°
2026-05-04 19:04 46.79707 13.09375 34076 ft 428 kts 269°
2026-05-04 19:05 46.79798 13.00701 34073 ft 428 kts 269°
2026-05-04 19:05 46.79872 12.92019 34073 ft 428 kts 269°
2026-05-04 19:06 46.79934 12.84802 34072 ft 427 kts 269°
2026-05-04 19:06 46.80003 12.76128 34069 ft 428 kts 269°
2026-05-04 19:07 46.80061 12.67449 34091 ft 428 kts 269°
2026-05-04 19:07 46.80115 12.58778 34099 ft 428 kts 269°
2026-05-04 19:08 46.80164 12.50099 34107 ft 428 kts 269°
2026-05-04 19:08 46.80204 12.41409 34123 ft 428 kts 269°
2026-05-04 19:09 46.80232 12.32731 34134 ft 428 kts 269°
2026-05-04 19:09 46.80213 12.24052 34148 ft 427 kts 267°
2026-05-04 19:10 46.79981 12.15387 34058 ft 427 kts 265°
2026-05-04 19:10 46.79680 12.06729 34060 ft 427 kts 265°
2026-05-04 19:11 46.79408 11.98125 34058 ft 427 kts 266°
2026-05-04 19:11 46.79154 11.89464 34052 ft 427 kts 266°
2026-05-04 19:12 46.78753 11.76489 34049 ft 427 kts 266°
2026-05-04 19:13 46.78478 11.67840 34053 ft 427 kts 266°
2026-05-04 19:13 46.78202 11.59199 34069 ft 426 kts 266°
2026-05-04 19:14 46.77917 11.50576 34074 ft 425 kts 266°
2026-05-04 19:14 46.77629 11.41955 34095 ft 425 kts 265°
2026-05-04 19:15 46.77332 11.33359 34081 ft 425 kts 265°
2026-05-04 19:15 46.77029 11.24747 34107 ft 425 kts 265°
2026-05-04 19:16 46.76713 11.16137 34104 ft 425 kts 265°
2026-05-04 19:16 46.76394 11.07524 34140 ft 425 kts 265°
2026-05-04 19:17 46.76073 10.98921 34153 ft 425 kts 265°
2026-05-04 19:17 46.75747 10.90309 34150 ft 425 kts 265°
2026-05-04 19:18 46.75412 10.81696 34151 ft 425 kts 264°
2026-05-04 19:18 46.75064 10.73137 34141 ft 425 kts 264°
2026-05-04 19:19 46.74711 10.64543 34139 ft 425 kts 264°
2026-05-04 19:19 46.74354 10.55943 34142 ft 425 kts 264°
2026-05-04 19:20 46.73986 10.47356 34158 ft 424 kts 264°
2026-05-04 19:20 46.74420 10.38790 34140 ft 428 kts 282°
2026-05-04 19:21 46.76545 10.30637 34135 ft 431 kts 290°
2026-05-04 19:21 46.78873 10.22581 34118 ft 431 kts 290°
2026-05-04 19:22 46.81177 10.14497 34132 ft 431 kts 289°
2026-05-04 19:22 46.83474 10.06425 34116 ft 430 kts 289°
2026-05-04 19:23 46.85769 9.98365 34093 ft 429 kts 289°
2026-05-04 19:23 46.88062 9.90299 34082 ft 430 kts 289°
2026-05-04 19:24 46.90336 9.82233 34073 ft 429 kts 289°
2026-05-04 19:24 46.92606 9.74154 34058 ft 429 kts 289°
2026-05-04 19:25 46.94875 9.66081 34033 ft 429 kts 289°
2026-05-04 19:25 46.97142 9.57996 34036 ft 429 kts 289°
2026-05-04 19:26 46.99396 9.49967 34013 ft 429 kts 289°
2026-05-04 19:26 47.01654 9.41869 34033 ft 429 kts 289°
2026-05-04 19:27 47.03899 9.33757 34025 ft 429 kts 288°
2026-05-04 19:27 47.06129 9.25663 34023 ft 428 kts 288°
2026-05-04 19:28 47.08354 9.17567 34018 ft 427 kts 288°
2026-05-04 19:28 47.10577 9.09469 34019 ft 428 kts 288°
2026-05-04 19:29 47.12805 9.01325 34027 ft 427 kts 288°
2026-05-04 19:29 47.14994 8.93269 34020 ft 427 kts 288°
2026-05-04 19:30 47.17162 8.85168 34012 ft 427 kts 287°
2026-05-04 19:30 47.19237 8.76985 34006 ft 427 kts 287°
2026-05-04 19:31 47.21290 8.68796 34032 ft 427 kts 286°
2026-05-04 19:31 47.23357 8.60612 34028 ft 426 kts 286°
2026-05-04 19:32 47.25419 8.52441 34027 ft 426 kts 286°
2026-05-04 19:32 47.27477 8.44260 34024 ft 426 kts 286°
2026-05-04 19:33 47.29535 8.36093 34034 ft 426 kts 286°
2026-05-04 19:33 47.31584 8.27906 34042 ft 426 kts 285°
2026-05-04 19:34 47.33619 8.19690 34022 ft 427 kts 285°
2026-05-04 19:34 47.35657 8.11458 34011 ft 428 kts 285°
2026-05-04 19:35 47.37699 8.03207 34009 ft 428 kts 285°
2026-05-04 19:35 47.39736 7.94953 34008 ft 428 kts 285°
2026-05-04 19:36 47.41768 7.86692 34004 ft 428 kts 285°
2026-05-04 19:36 47.43788 7.78414 34002 ft 428 kts 285°
2026-05-04 19:37 47.45789 7.70133 34001 ft 428 kts 285°
2026-05-04 19:37 47.47464 7.61739 33998 ft 425 kts 279°
2026-05-04 19:38 47.48889 7.53259 34001 ft 426 kts 279°
2026-05-04 19:38 47.49610 7.48987 34255 ft 429 kts 281°
2026-05-04 19:38 47.50717 7.44865 34569 ft 437 kts 293°
2026-05-04 19:38 47.52146 7.40894 34904 ft 437 kts 294°
2026-05-04 19:39 47.53587 7.36936 35227 ft 437 kts 294°
2026-05-04 19:39 47.55010 7.33037 35560 ft 436 kts 294°
2026-05-04 19:39 47.56448 7.29088 35888 ft 435 kts 294°
2026-05-04 19:39 47.57883 7.25134 36007 ft 436 kts 294°
2026-05-04 19:40 47.59313 7.21177 36006 ft 436 kts 294°
2026-05-04 19:40 47.62165 7.13259 36024 ft 435 kts 294°
2026-05-04 19:41 47.65010 7.05323 36007 ft 436 kts 294°
2026-05-04 19:41 47.67860 6.97380 36005 ft 436 kts 294°
2026-05-04 19:42 47.70703 6.89439 36006 ft 436 kts 294°
2026-05-04 19:42 47.73540 6.81472 36008 ft 436 kts 293°
2026-05-04 19:43 47.76367 6.73489 36028 ft 437 kts 293°
2026-05-04 19:43 47.79200 6.65497 36021 ft 437 kts 293°
2026-05-04 19:44 47.82026 6.57495 36017 ft 437 kts 293°
2026-05-04 19:44 47.84842 6.49473 36019 ft 438 kts 293°
2026-05-04 19:45 47.87659 6.41422 36014 ft 439 kts 293°
2026-05-04 19:45 47.90479 6.33354 36033 ft 439 kts 293°
2026-05-04 19:46 47.93299 6.25278 36023 ft 440 kts 293°
2026-05-04 19:46 47.96119 6.17179 36009 ft 440 kts 293°
2026-05-04 19:47 47.98926 6.09067 36012 ft 440 kts 293°
2026-05-04 19:47 48.01725 6.00948 36013 ft 440 kts 292°
2026-05-04 19:48 48.04524 5.92816 36017 ft 440 kts 293°
2026-05-04 19:48 48.07320 5.84681 36013 ft 440 kts 292°
2026-05-04 19:49 48.10109 5.76534 36015 ft 441 kts 293°
2026-05-04 19:49 48.12894 5.68356 36010 ft 441 kts 292°
2026-05-04 19:50 48.15658 5.60223 36000 ft 441 kts 292°
2026-05-04 19:50 48.18434 5.52031 36015 ft 441 kts 292°
2026-05-04 19:51 48.21205 5.43818 36008 ft 442 kts 292°
2026-05-04 19:51 48.23973 5.35596 36001 ft 442 kts 292°
2026-05-04 19:52 48.26736 5.27362 35993 ft 442 kts 292°
2026-05-04 19:52 48.29490 5.19115 35993 ft 442 kts 292°
2026-05-04 19:53 48.32240 5.10862 36005 ft 442 kts 292°
2026-05-04 19:53 48.34526 5.04004 36002 ft 442 kts 292°
2026-05-04 19:54 48.37272 4.95735 35984 ft 442 kts 292°
2026-05-04 19:54 48.40008 4.87452 35980 ft 442 kts 292°
2026-05-04 19:55 48.42731 4.79153 35973 ft 442 kts 292°
2026-05-04 19:55 48.45453 4.70849 35995 ft 442 kts 292°
2026-05-04 19:56 48.48178 4.62539 35984 ft 442 kts 292°
2026-05-04 19:56 48.50886 4.54236 35981 ft 441 kts 292°
2026-05-04 19:57 48.53585 4.45919 35981 ft 441 kts 292°
2026-05-04 19:57 48.56278 4.37601 35984 ft 441 kts 292°
2026-05-04 19:58 48.58969 4.29281 36002 ft 441 kts 292°
2026-05-04 19:58 48.61650 4.20958 35998 ft 440 kts 292°
2026-05-04 19:59 48.64321 4.12633 35996 ft 440 kts 292°
2026-05-04 19:59 48.65957 4.08699 35992 ft 446 kts 306°
2026-05-04 19:59 48.68043 4.05216 35994 ft 448 kts 308°
2026-05-04 20:00 48.72277 3.98292 35984 ft 448 kts 308°
2026-05-04 20:00 48.76511 3.91361 35982 ft 448 kts 308°
2026-05-04 20:01 48.80739 3.84420 35978 ft 448 kts 308°
2026-05-04 20:01 48.84955 3.77464 35972 ft 448 kts 308°
2026-05-04 20:02 48.89162 3.70495 35967 ft 447 kts 308°
2026-05-04 20:02 48.93368 3.63514 35965 ft 448 kts 308°
2026-05-04 20:03 48.97572 3.56529 35965 ft 448 kts 308°
2026-05-04 20:03 49.01773 3.49529 35982 ft 448 kts 308°
2026-05-04 20:04 49.05966 3.42516 35985 ft 447 kts 308°
2026-05-04 20:04 49.10148 3.35493 35979 ft 447 kts 308°
2026-05-04 20:05 49.14327 3.28463 35974 ft 447 kts 308°
2026-05-04 20:05 49.18501 3.21439 35973 ft 447 kts 308°
2026-05-04 20:06 49.22674 3.14385 35976 ft 447 kts 308°
2026-05-04 20:06 49.26840 3.07320 35994 ft 447 kts 308°
2026-05-04 20:07 49.30976 3.00299 35985 ft 446 kts 308°
2026-05-04 20:07 49.35127 2.93236 35980 ft 446 kts 308°
2026-05-04 20:08 49.39267 2.86151 35979 ft 446 kts 308°
2026-05-04 20:08 49.43401 2.79071 35980 ft 446 kts 308°
2026-05-04 20:09 49.47532 2.71971 35974 ft 445 kts 308°
2026-05-04 20:09 49.51661 2.64862 35999 ft 446 kts 308°
2026-05-04 20:10 49.55786 2.57736 35985 ft 446 kts 308°
2026-05-04 20:10 49.59903 2.50600 35987 ft 446 kts 308°
2026-05-04 20:11 49.64027 2.43449 35986 ft 446 kts 308°
2026-05-04 20:11 49.68141 2.36292 35985 ft 446 kts 308°
2026-05-04 20:12 49.72243 2.29107 35995 ft 446 kts 308°
2026-05-04 20:12 49.76341 2.21906 36003 ft 446 kts 308°
2026-05-04 20:13 49.80443 2.14690 35998 ft 447 kts 308°
2026-05-04 20:13 49.84530 2.07504 35992 ft 448 kts 308°
2026-05-04 20:14 49.88648 2.00257 35994 ft 448 kts 308°
2026-05-04 20:14 49.90705 1.96620 35791 ft 448 kts 308°
2026-05-04 20:14 49.92755 1.92980 35542 ft 447 kts 308°
2026-05-04 20:14 49.94800 1.89342 35294 ft 447 kts 308°
2026-05-04 20:15 49.96847 1.85696 34590 ft 450 kts 308°
2026-05-04 20:15 49.98905 1.82024 33730 ft 453 kts 308°
2026-05-04 20:15 50.00991 1.78301 32731 ft 457 kts 308°
2026-05-04 20:15 50.03081 1.74568 31838 ft 459 kts 308°
2026-05-04 20:16 50.05174 1.70829 31293 ft 453 kts 308°
2026-05-04 20:16 50.07281 1.67227 30724 ft 450 kts 313°
2026-05-04 20:16 50.09617 1.63996 30176 ft 447 kts 316°
2026-05-04 20:16 50.11958 1.60833 29550 ft 443 kts 316°
2026-05-04 20:17 50.14271 1.57699 29000 ft 438 kts 316°
2026-05-04 20:17 50.16552 1.54596 28449 ft 433 kts 316°
2026-05-04 20:17 50.18806 1.51524 27913 ft 428 kts 316°
2026-05-04 20:17 50.21037 1.48479 27369 ft 424 kts 316°
2026-05-04 20:18 50.23246 1.45458 26844 ft 420 kts 317°
2026-05-04 20:18 50.25407 1.42501 26316 ft 417 kts 317°
2026-05-04 20:18 50.27583 1.39528 25805 ft 414 kts 317°
2026-05-04 20:18 50.29745 1.36570 25315 ft 412 kts 317°
2026-05-04 20:19 50.31894 1.33624 24821 ft 410 kts 316°
2026-05-04 20:19 50.34061 1.30648 24351 ft 408 kts 317°
2026-05-04 20:19 50.36185 1.27727 23871 ft 406 kts 317°
2026-05-04 20:19 50.38305 1.24808 23407 ft 404 kts 317°
2026-05-04 20:20 50.40410 1.21904 22932 ft 401 kts 316°
2026-05-04 20:20 50.42497 1.19022 22476 ft 398 kts 317°
2026-05-04 20:20 50.44566 1.16167 22035 ft 395 kts 317°
2026-05-04 20:20 50.46619 1.13331 21575 ft 392 kts 317°
2026-05-04 20:21 50.48660 1.10506 21120 ft 389 kts 317°
2026-05-04 20:21 50.50680 1.07703 20648 ft 386 kts 317°
2026-05-04 20:21 50.54395 1.01700 19697 ft 381 kts 313°
2026-05-04 20:22 50.56194 0.98658 19198 ft 379 kts 313°
2026-05-04 20:22 50.57985 0.95631 18710 ft 377 kts 313°
2026-05-04 20:22 50.59774 0.92613 18197 ft 376 kts 314°
2026-05-04 20:22 50.61551 0.89610 17672 ft 373 kts 313°
2026-05-04 20:23 50.63290 0.86666 17175 ft 370 kts 314°
2026-05-04 20:23 50.65054 0.83674 16680 ft 367 kts 313°
2026-05-04 20:23 50.66760 0.80778 16195 ft 364 kts 313°
2026-05-04 20:23 50.68453 0.77825 15571 ft 364 kts 311°
2026-05-04 20:24 50.70099 0.74734 14791 ft 371 kts 309°
2026-05-04 20:24 50.71717 0.71534 14022 ft 375 kts 309°
2026-05-04 20:24 50.73317 0.68303 13532 ft 370 kts 309°
2026-05-04 20:24 50.74898 0.65115 12941 ft 367 kts 309°
2026-05-04 20:25 50.76472 0.61965 12388 ft 363 kts 309°
2026-05-04 20:25 50.78033 0.58868 12005 ft 352 kts 309°
2026-05-04 20:25 50.79499 0.55973 11861 ft 324 kts 309°
2026-05-04 20:25 50.80865 0.53279 11526 ft 307 kts 309°
2026-05-04 20:26 50.82209 0.50633 10928 ft 302 kts 309°
2026-05-04 20:26 50.83522 0.48050 10616 ft 300 kts 309°
2026-05-04 20:26 50.84806 0.45522 10273 ft 299 kts 309°
2026-05-04 20:26 50.86102 0.42966 9942 ft 297 kts 309°
2026-05-04 20:27 50.87389 0.40426 9586 ft 295 kts 309°
2026-05-04 20:27 50.88665 0.37898 9228 ft 293 kts 308°
2026-05-04 20:27 50.89931 0.35381 8869 ft 291 kts 308°
2026-05-04 20:27 50.91188 0.32878 8519 ft 289 kts 308°
2026-05-04 20:28 50.92436 0.30391 8183 ft 287 kts 309°
2026-05-04 20:28 50.93678 0.27922 7846 ft 285 kts 309°
2026-05-04 20:28 50.94910 0.25472 7511 ft 283 kts 309°
2026-05-04 20:28 50.96125 0.23023 7182 ft 281 kts 308°
2026-05-04 20:29 50.97326 0.20580 6867 ft 279 kts 308°
2026-05-04 20:29 50.98511 0.18161 6555 ft 277 kts 308°
2026-05-04 20:29 50.99690 0.15750 6227 ft 275 kts 308°
2026-05-04 20:29 51.00838 0.13331 5882 ft 274 kts 303°
2026-05-04 20:30 51.01625 0.10580 5522 ft 275 kts 287°
2026-05-04 20:30 51.01907 0.07589 5180 ft 275 kts 275°
2026-05-04 20:30 51.02035 0.04550 4801 ft 275 kts 275°
2026-05-04 20:30 51.02161 0.01527 4462 ft 273 kts 275°
2026-05-04 20:31 51.02288 -0.01463 4052 ft 274 kts 274°
2026-05-04 20:31 51.02420 -0.04504 3707 ft 274 kts 275°
2026-05-04 20:31 51.02548 -0.07482 3612 ft 269 kts 275°
2026-05-04 20:31 51.02675 -0.10431 3541 ft 264 kts 275°
2026-05-04 20:32 51.02794 -0.13270 3479 ft 252 kts 275°
2026-05-04 20:32 51.02907 -0.15977 3433 ft 240 kts 275°
2026-05-04 20:32 51.03015 -0.18607 3368 ft 237 kts 275°
2026-05-04 20:32 51.03122 -0.21214 3316 ft 237 kts 275°
2026-05-04 20:33 51.03231 -0.23828 3262 ft 237 kts 275°
2026-05-04 20:33 51.03337 -0.26437 3209 ft 237 kts 275°
2026-05-04 20:33 51.03442 -0.29052 3110 ft 237 kts 275°
2026-05-04 20:33 51.03545 -0.31635 3007 ft 233 kts 275°
2026-05-04 20:34 51.03651 -0.34231 3010 ft 237 kts 275°
2026-05-04 20:34 51.03757 -0.36837 3012 ft 237 kts 275°
2026-05-04 20:34 51.03862 -0.39452 3002 ft 238 kts 275°
2026-05-04 20:34 51.03965 -0.42068 3010 ft 237 kts 275°
2026-05-04 20:35 51.04067 -0.44682 3007 ft 237 kts 275°
2026-05-04 20:35 51.04168 -0.47297 3005 ft 238 kts 275°
2026-05-04 20:35 51.04270 -0.49916 3008 ft 236 kts 275°
2026-05-04 20:35 51.04463 -0.52508 2996 ft 236 kts 291°
2026-05-04 20:36 51.05420 -0.54493 2999 ft 222 kts 332°
2026-05-04 20:36 51.06808 -0.55024 3007 ft 201 kts
2026-05-04 20:36 51.08145 -0.54716 3030 ft 186 kts 21°
2026-05-04 20:36 51.09241 -0.53742 3021 ft 182 kts 41°
2026-05-04 20:37 51.10038 -0.52215 2998 ft 180 kts 62°
2026-05-04 20:37 51.10440 -0.50344 3002 ft 179 kts 76°
2026-05-04 20:37 51.10699 -0.48495 3004 ft 166 kts 77°
2026-05-04 20:37 51.10948 -0.46733 3003 ft 162 kts 76°
2026-05-04 20:38 51.11192 -0.45000 3012 ft 160 kts 77°
2026-05-04 20:38 51.11435 -0.43271 2984 ft 160 kts 77°
2026-05-04 20:38 51.11669 -0.41607 2842 ft 149 kts 76°
2026-05-04 20:38 51.11887 -0.40053 2695 ft 138 kts 76°
2026-05-04 20:39 51.12091 -0.38598 2513 ft 133 kts 76°
2026-05-04 20:39 51.12223 -0.37652 2390 ft 131 kts 76°
2026-05-04 20:39 51.12421 -0.36242 2214 ft 130 kts 76°
2026-05-04 20:39 51.12617 -0.34837 2038 ft 130 kts 76°
2026-05-04 20:40 51.12814 -0.33430 1864 ft 130 kts 76°
2026-05-04 20:40 51.13009 -0.32029 1689 ft 129 kts 76°
2026-05-04 20:40 51.13204 -0.30630 1499 ft 129 kts 76°
2026-05-04 20:40 51.13399 -0.29236 1332 ft 129 kts 76°
2026-05-04 20:41 51.13592 -0.27845 1157 ft 129 kts 77°
2026-05-04 20:41 51.13786 -0.26448 974 ft 129 kts 77°
2026-05-04 20:41 51.13981 -0.25048 799 ft 131 kts 76°
2026-05-04 20:41 51.14176 -0.23637 625 ft 130 kts 76°
2026-05-04 20:42 51.14372 -0.22225 449 ft 131 kts 76°
2026-05-04 20:42 51.14568 -0.20810 272 ft 131 kts 76°
2026-05-04 20:42 51.14757 -0.19468 209 ft 105 kts 78°
2026-05-04 20:42 51.14873 -0.18665 211 ft 32 kts 75°
2026-05-04 20:43 51.14987 -0.18418 208 ft 27 kts 51°
2026-05-04 20:43 51.15068 -0.18257 203 ft 0 kts 47°
2026-05-04 20:43 51.15075 -0.18246 208 ft 3 kts 46°
2026-05-04 20:43 51.15083 -0.18232 204 ft 0 kts 46°
2026-05-04 20:44 51.15089 -0.18222 208 ft 2 kts 47°
2026-05-04 20:44 51.15104 -0.18196 207 ft 4 kts 48°
2026-05-04 20:44 51.15120 -0.18151 211 ft 6 kts 69°
2026-05-04 20:45 51.15134 -0.18068 208 ft 10 kts 77°
2026-05-04 20:45 51.15151 -0.17930 205 ft 16 kts 79°
2026-05-04 20:45 51.15173 -0.17726 215 ft 21 kts 78°
2026-05-04 20:45 51.15208 -0.17482 210 ft 24 kts 76°
2026-05-04 20:46 51.15252 -0.17208 204 ft 27 kts 77°
2026-05-04 20:46 51.15290 -0.16909 210 ft 24 kts 78°
2026-05-04 20:46 51.15324 -0.16707 214 ft 19 kts 65°
2026-05-04 20:46 51.15365 -0.16545 214 ft 10 kts 75°
2026-05-04 20:47 51.15387 -0.16488 204 ft 2 kts 51°
2026-05-04 20:47 51.15397 -0.16453 213 ft 5 kts 72°
2026-05-04 20:47 51.15402 -0.16420 210 ft 2 kts 77°
2026-05-04 20:47 51.15403 -0.16407 215 ft 1 kts 77°
2026-05-04 20:48 51.15404 -0.16404 204 ft 0 kts 77°